Time,TemperatureF,DewpointF,PressureIn,WindDirection,WindDirectionDegrees,WindSpeedMPH,WindSpeedGustMPH,Humidity,HourlyPrecipIn,Conditions,Clouds,dailyrainin,SoftwareType,DateUTC
2013-06-22 00:01:00,63.7,58.8,30.26,North,0,0.0,0.0,84,0.00,,,0.00,pywws,2013-06-22 04:01:00,
2013-06-22 00:02:00,63.5,58.6,30.27,North,0,0.0,0.0,84,0.00,,,0.00,pywws,2013-06-22 04:02:00,
2013-06-22 00:04:00,63.5,58.6,30.26,North,0,0.0,0.0,84,0.00,,,0.00,pywws,2013-06-22 04:04:00,
2013-06-22 00:05:00,63.3,58.4,30.27,North,0,0.0,0.0,84,0.00,,,0.00,pywws,2013-06-22 04:05:00,
2013-06-22 00:06:00,63.3,58.4,30.27,North,0,0.0,0.0,84,0.00,,,0.00,pywws,2013-06-22 04:06:00,
2013-06-22 00:12:00,63.0,58.4,30.26,North,0,0.0,0.0,85,0.00,,,0.00,pywws,2013-06-22 04:12:00,
2013-06-22 00:17:00,62.8,58.2,30.26,North,0,0.0,0.0,85,0.00,,,0.00,pywws,2013-06-22 04:17:00,
2013-06-22 00:24:00,62.6,58.0,30.26,North,0,0.0,0.0,85,0.00,,,0.00,pywws,2013-06-22 04:24:00,
2013-06-22 00:29:00,62.2,58.3,30.26,North,0,0.0,0.0,87,0.00,,,0.00,pywws,2013-06-22 04:29:00,
2013-06-22 00:36:00,61.9,58.0,30.26,North,0,0.0,0.0,87,0.00,,,0.00,pywws,2013-06-22 04:36:00,
2013-06-22 00:43:00,61.7,58.1,30.26,North,0,0.0,0.0,88,0.00,,,0.00,pywws,2013-06-22 04:43:00,
2013-06-22 00:48:00,61.9,58.3,30.25,North,0,0.0,0.0,88,0.00,,,0.00,pywws,2013-06-22 04:48:00,
2013-06-22 00:54:00,61.7,58.4,30.25,North,0,0.0,0.0,89,0.00,,,0.00,pywws,2013-06-22 04:54:00,
2013-06-22 01:00:00,61.7,58.4,30.25,North,0,0.0,0.0,89,0.00,,,0.00,pywws,2013-06-22 05:00:00,
2013-06-22 01:05:00,61.5,58.2,30.26,North,0,0.0,0.0,89,0.00,,,0.00,pywws,2013-06-22 05:05:00,
2013-06-22 01:12:00,61.7,58.4,30.26,North,0,0.0,0.0,89,0.00,,,0.00,pywws,2013-06-22 05:12:00,
2013-06-22 01:17:00,61.5,58.2,30.25,North,0,0.0,0.0,89,0.00,,,0.00,pywws,2013-06-22 05:17:00,
2013-06-22 01:24:00,61.5,57.9,30.26,North,0,0.0,0.0,88,0.00,,,0.00,pywws,2013-06-22 05:24:00,
2013-06-22 01:29:00,61.3,57.8,30.26,North,0,0.0,0.0,88,0.00,,,0.00,pywws,2013-06-22 05:29:00,
2013-06-22 01:35:00,61.3,57.8,30.26,North,0,0.0,0.0,88,0.00,,,0.00,pywws,2013-06-22 05:35:00,
2013-06-22 01:40:00,61.2,57.6,30.26,North,0,0.0,0.0,88,0.00,,,0.00,pywws,2013-06-22 05:40:00,
2013-06-22 01:46:00,61.0,57.4,30.26,North,0,0.0,0.0,88,0.00,,,0.00,pywws,2013-06-22 05:46:00,
2013-06-22 01:52:00,60.8,57.2,30.26,North,0,0.0,0.0,88,0.00,,,0.00,pywws,2013-06-22 05:52:00,
2013-06-22 01:58:00,60.6,57.4,30.26,North,0,0.0,0.0,89,0.00,,,0.00,pywws,2013-06-22 05:58:00,
2013-06-22 02:04:00,60.8,57.2,30.26,North,0,0.0,0.0,88,0.00,,,0.00,pywws,2013-06-22 06:04:00,
2013-06-22 02:09:00,60.4,57.2,30.26,North,0,0.0,0.0,89,0.00,,,0.00,pywws,2013-06-22 06:09:00,
2013-06-22 02:15:00,60.3,57.0,30.26,North,0,0.0,0.0,89,0.00,,,0.00,pywws,2013-06-22 06:15:00,
2013-06-22 02:20:00,60.3,57.3,30.26,North,0,0.0,0.0,90,0.00,,,0.00,pywws,2013-06-22 06:20:00,
2013-06-22 02:26:00,60.1,57.4,30.27,North,0,0.0,0.0,91,0.00,,,0.00,pywws,2013-06-22 06:26:00,
2013-06-22 02:32:00,59.9,57.3,30.26,North,0,0.0,0.0,91,0.00,,,0.00,pywws,2013-06-22 06:32:00,
2013-06-22 02:38:00,59.7,57.1,30.26,North,0,0.0,0.0,91,0.00,,,0.00,pywws,2013-06-22 06:38:00,
2013-06-22 02:44:00,59.5,57.2,30.26,North,0,0.0,0.0,92,0.00,,,0.00,pywws,2013-06-22 06:44:00,
2013-06-22 02:50:00,59.5,57.2,30.27,North,0,0.0,0.0,92,0.00,,,0.00,pywws,2013-06-22 06:50:00,
2013-06-22 02:56:00,59.5,57.2,30.26,North,0,0.0,0.0,92,0.00,,,0.00,pywws,2013-06-22 06:56:00,
2013-06-22 03:01:00,59.5,57.5,30.26,North,0,0.0,0.0,93,0.00,,,0.00,pywws,2013-06-22 07:01:00,
2013-06-22 03:10:00,59.5,57.5,30.25,North,0,0.0,0.0,93,0.00,,,0.00,pywws,2013-06-22 07:10:00,
2013-06-22 03:19:00,59.5,57.5,30.26,North,0,0.0,0.0,93,0.00,,,0.00,pywws,2013-06-22 07:19:00,
2013-06-22 03:25:00,59.5,57.5,30.25,North,0,0.0,0.0,93,0.00,,,0.00,pywws,2013-06-22 07:25:00,
2013-06-22 03:31:00,59.7,57.7,30.25,North,0,0.0,0.0,93,0.00,,,0.00,pywws,2013-06-22 07:31:00,
2013-06-22 03:37:00,59.7,57.7,30.25,North,0,0.0,0.0,93,0.00,,,0.00,pywws,2013-06-22 07:37:00,
2013-06-22 03:43:00,59.7,57.7,30.25,North,0,0.0,0.0,93,0.00,,,0.00,pywws,2013-06-22 07:43:00,
2013-06-22 03:48:00,59.5,57.5,30.25,North,0,0.0,0.0,93,0.00,,,0.00,pywws,2013-06-22 07:48:00,
2013-06-22 03:54:00,59.4,57.3,30.25,West,270,0.0,0.0,93,0.00,,,0.00,pywws,2013-06-22 07:54:00,
2013-06-22 04:00:00,59.2,56.9,30.25,West,270,0.0,0.0,92,0.00,,,0.00,pywws,2013-06-22 08:00:00,
2013-06-22 04:05:00,59.0,56.7,30.24,West,270,0.0,0.0,92,0.00,,,0.00,pywws,2013-06-22 08:05:00,
2013-06-22 04:12:00,59.0,57.0,30.25,West,270,0.0,0.0,93,0.00,,,0.00,pywws,2013-06-22 08:12:00,
2013-06-22 04:20:00,58.8,57.1,30.24,West,270,0.0,0.0,94,0.00,,,0.00,pywws,2013-06-22 08:20:00,
2013-06-22 04:25:00,58.6,56.9,30.24,West,270,0.0,0.0,94,0.00,,,0.00,pywws,2013-06-22 08:25:00,
2013-06-22 04:31:00,58.3,56.6,30.24,West,270,0.0,0.0,94,0.00,,,0.00,pywws,2013-06-22 08:31:00,
2013-06-22 04:36:00,58.3,56.6,30.25,West,270,0.0,0.0,94,0.00,,,0.00,pywws,2013-06-22 08:36:00,
2013-06-22 04:42:00,58.1,56.4,30.25,West,270,0.0,0.0,94,0.00,,,0.00,pywws,2013-06-22 08:42:00,
2013-06-22 04:48:00,58.3,56.9,30.25,West,270,0.0,0.0,95,0.00,,,0.00,pywws,2013-06-22 08:48:00,
2013-06-22 04:53:00,58.3,56.9,30.25,West,270,0.0,0.0,95,0.00,,,0.00,pywws,2013-06-22 08:53:00,
2013-06-22 05:00:00,58.3,56.9,30.24,North,0,0.0,0.0,95,0.00,,,0.00,pywws,2013-06-22 09:00:00,
2013-06-22 05:06:00,58.5,57.3,30.25,North,0,0.0,0.0,96,0.00,,,0.00,pywws,2013-06-22 09:06:00,
2013-06-22 05:12:00,58.3,57.1,30.25,North,0,0.0,0.0,96,0.00,,,0.00,pywws,2013-06-22 09:12:00,
2013-06-22 05:19:00,58.3,57.1,30.26,North,0,0.0,0.0,96,0.00,,,0.00,pywws,2013-06-22 09:19:00,
2013-06-22 05:25:00,58.1,57.0,30.25,North,0,0.0,0.0,96,0.00,,,0.00,pywws,2013-06-22 09:25:00,
2013-06-22 05:31:00,58.3,57.1,30.26,North,0,0.0,0.0,96,0.00,,,0.00,pywws,2013-06-22 09:31:00,
2013-06-22 05:37:00,58.5,57.3,30.25,North,0,0.0,0.0,96,0.00,,,0.00,pywws,2013-06-22 09:37:00,
2013-06-22 05:44:00,58.6,57.8,30.26,North,0,0.0,0.0,97,0.00,,,0.00,pywws,2013-06-22 09:44:00,
2013-06-22 05:49:00,59.0,57.9,30.25,North,0,0.0,0.0,96,0.00,,,0.00,pywws,2013-06-22 09:49:00,
2013-06-22 05:55:00,58.8,58.0,30.25,North,0,0.0,0.0,97,0.00,,,0.00,pywws,2013-06-22 09:55:00,
2013-06-22 06:00:00,59.2,58.0,30.25,North,0,0.0,0.0,96,0.00,,,0.00,pywws,2013-06-22 10:00:00,
2013-06-22 06:06:00,59.4,57.9,30.25,North,0,0.0,0.0,95,0.00,,,0.00,pywws,2013-06-22 10:06:00,
2013-06-22 06:12:00,59.9,58.5,30.24,North,0,0.0,0.0,95,0.00,,,0.00,pywws,2013-06-22 10:12:00,
2013-06-22 06:18:00,60.4,59.0,30.24,North,0,0.0,0.0,95,0.00,,,0.00,pywws,2013-06-22 10:18:00,
2013-06-22 06:24:00,61.0,58.9,30.24,East,90,0.0,0.0,93,0.00,,,0.00,pywws,2013-06-22 10:24:00,
2013-06-22 06:29:00,61.7,59.3,30.24,East,90,0.0,0.0,92,0.00,,,0.00,pywws,2013-06-22 10:29:00,
2013-06-22 06:35:00,62.4,60.1,30.24,East,90,0.0,0.0,92,0.00,,,0.00,pywws,2013-06-22 10:35:00,
2013-06-22 06:40:00,63.1,59.8,30.24,East,90,0.0,0.0,89,0.00,,,0.00,pywws,2013-06-22 10:40:00,
2013-06-22 06:46:00,64.2,60.6,30.24,East,90,0.0,0.0,88,0.00,,,0.00,pywws,2013-06-22 10:46:00,
2013-06-22 06:52:00,64.6,60.6,30.24,East,90,0.0,0.0,87,0.00,,,0.00,pywws,2013-06-22 10:52:00,
2013-06-22 06:57:00,65.8,61.5,30.25,East,90,0.0,0.0,86,0.00,,,0.00,pywws,2013-06-22 10:57:00,
2013-06-22 07:03:00,67.1,61.4,30.25,East,90,0.0,0.0,82,0.00,,,0.00,pywws,2013-06-22 11:03:00,
2013-06-22 07:08:00,68.7,61.6,30.24,East,90,0.0,0.0,78,0.00,,,0.00,pywws,2013-06-22 11:08:00,
2013-06-22 07:14:00,70.3,61.3,30.25,East,90,0.0,0.0,73,0.00,,,0.00,pywws,2013-06-22 11:14:00,
2013-06-22 07:20:00,71.4,60.7,30.25,East,90,0.0,0.0,69,0.00,,,0.00,pywws,2013-06-22 11:20:00,
2013-06-22 07:25:00,70.5,59.8,30.25,East,90,0.0,0.0,69,0.00,,,0.00,pywws,2013-06-22 11:25:00,
2013-06-22 07:31:00,69.4,58.4,30.24,East,90,0.0,0.0,68,0.00,,,0.00,pywws,2013-06-22 11:31:00,
2013-06-22 07:36:00,71.2,60.1,30.24,East,90,0.0,0.0,68,0.00,,,0.00,pywws,2013-06-22 11:36:00,
2013-06-22 07:42:00,71.4,59.5,30.24,East,90,0.0,0.0,66,0.00,,,0.00,pywws,2013-06-22 11:42:00,
2013-06-22 07:48:00,72.1,59.3,30.24,South,180,0.0,0.0,64,0.00,,,0.00,pywws,2013-06-22 11:48:00,
2013-06-22 07:53:00,73.4,60.5,30.24,West,270,0.0,0.0,64,0.00,,,0.00,pywws,2013-06-22 11:53:00,
2013-06-22 07:59:00,74.8,61.8,30.24,East,90,0.0,0.0,64,0.00,,,0.00,pywws,2013-06-22 11:59:00,
2013-06-22 08:04:00,75.6,60.2,30.24,West,270,0.0,0.0,59,0.00,,,0.00,pywws,2013-06-22 12:04:00,
2013-06-22 08:10:00,75.6,60.2,30.24,NE,45,0.0,0.0,59,0.00,,,0.00,pywws,2013-06-22 12:10:00,
2013-06-22 08:16:00,76.8,59.9,30.24,South,180,0.0,0.0,56,0.00,,,0.00,pywws,2013-06-22 12:16:00,
2013-06-22 08:21:00,76.5,60.6,30.24,South,180,0.0,0.0,58,0.00,,,0.00,pywws,2013-06-22 12:21:00,
2013-06-22 08:27:00,75.0,58.7,30.24,South,180,0.0,0.0,57,0.00,,,0.00,pywws,2013-06-22 12:27:00,
2013-06-22 08:32:00,77.0,59.6,30.23,North,0,0.0,0.0,55,0.00,,,0.00,pywws,2013-06-22 12:32:00,
2013-06-22 08:38:00,77.0,59.6,30.23,NE,45,0.0,0.0,55,0.00,,,0.00,pywws,2013-06-22 12:38:00,
2013-06-22 08:44:00,79.0,60.9,30.24,South,180,0.0,0.0,54,0.00,,,0.00,pywws,2013-06-22 12:44:00,
2013-06-22 08:49:00,77.4,59.4,30.24,North,0,0.0,0.0,54,0.00,,,0.00,pywws,2013-06-22 12:49:00,
2013-06-22 08:55:00,74.5,57.7,30.24,South,180,0.0,0.0,56,0.00,,,0.00,pywws,2013-06-22 12:55:00,
2013-06-22 09:00:00,77.9,60.4,30.24,NW,315,0.0,0.0,55,0.00,,,0.00,pywws,2013-06-22 13:00:00,
2013-06-22 09:06:00,79.5,60.9,30.24,South,180,0.0,0.0,53,0.00,,,0.00,pywws,2013-06-22 13:06:00,
2013-06-22 09:12:00,79.0,59.8,30.24,South,180,0.0,0.0,52,0.00,,,0.00,pywws,2013-06-22 13:12:00,
2013-06-22 09:17:00,77.9,60.4,30.24,West,270,0.0,0.0,55,0.00,,,0.00,pywws,2013-06-22 13:17:00,
2013-06-22 09:23:00,77.0,59.6,30.24,West,270,0.0,0.0,55,0.00,,,0.00,pywws,2013-06-22 13:23:00,
2013-06-22 09:28:00,76.5,60.1,30.24,West,270,0.0,0.0,57,0.00,,,0.00,pywws,2013-06-22 13:28:00,
2013-06-22 09:34:00,75.6,60.2,30.24,West,270,0.0,0.0,59,0.00,,,0.00,pywws,2013-06-22 13:34:00,
2013-06-22 09:39:00,76.8,61.4,30.24,West,270,0.0,0.0,59,0.00,,,0.00,pywws,2013-06-22 13:39:00,
2013-06-22 09:44:00,77.0,61.1,30.24,East,90,0.0,0.0,58,0.00,,,0.00,pywws,2013-06-22 13:44:00,
2013-06-22 09:50:00,77.2,60.7,30.24,West,270,0.0,0.0,57,0.00,,,0.00,pywws,2013-06-22 13:50:00,
2013-06-22 09:56:00,77.5,61.6,30.24,South,180,0.0,0.7,58,0.00,,,0.00,pywws,2013-06-22 13:56:00,
2013-06-22 10:01:00,79.0,62.9,30.24,South,180,0.0,0.0,58,0.00,,,0.00,pywws,2013-06-22 14:01:00,
2013-06-22 10:07:00,77.0,60.6,30.24,South,180,0.0,0.0,57,0.00,,,0.00,pywws,2013-06-22 14:07:00,
2013-06-22 10:12:00,77.7,61.3,30.24,South,180,0.0,0.0,57,0.00,,,0.00,pywws,2013-06-22 14:12:00,
2013-06-22 10:18:00,78.4,61.4,30.24,West,270,0.0,0.0,56,0.00,,,0.00,pywws,2013-06-22 14:18:00,
2013-06-22 10:24:00,79.3,61.7,30.25,NW,315,0.0,0.7,55,0.00,,,0.00,pywws,2013-06-22 14:24:00,
2013-06-22 10:29:00,78.6,62.6,30.24,South,180,0.0,0.0,58,0.00,,,0.00,pywws,2013-06-22 14:29:00,
2013-06-22 10:35:00,79.0,61.9,30.25,West,270,0.0,0.0,56,0.00,,,0.00,pywws,2013-06-22 14:35:00,
2013-06-22 10:40:00,79.5,63.4,30.25,South,180,0.0,0.0,58,0.00,,,0.00,pywws,2013-06-22 14:40:00,
2013-06-22 10:46:00,78.8,62.3,30.25,East,90,0.0,0.0,57,0.00,,,0.00,pywws,2013-06-22 14:46:00,
2013-06-22 10:52:00,79.9,63.3,30.25,South,180,0.0,0.0,57,0.00,,,0.00,pywws,2013-06-22 14:52:00,
2013-06-22 10:57:00,80.8,64.1,30.25,South,180,0.0,0.0,57,0.00,,,0.00,pywws,2013-06-22 14:57:00,
2013-06-22 11:03:00,80.8,62.6,30.25,West,270,0.0,0.0,54,0.00,,,0.00,pywws,2013-06-22 15:03:00,
2013-06-22 11:08:00,83.5,65.6,30.25,South,180,0.0,0.0,55,0.00,,,0.00,pywws,2013-06-22 15:08:00,
2013-06-22 11:14:00,82.6,63.7,30.25,West,270,0.0,0.0,53,0.00,,,0.00,pywws,2013-06-22 15:14:00,
2013-06-22 11:20:00,81.0,62.2,30.25,West,270,0.0,0.0,53,0.00,,,0.00,pywws,2013-06-22 15:20:00,
2013-06-22 11:25:00,82.8,64.9,30.25,SE,135,0.0,0.0,55,0.00,,,0.00,pywws,2013-06-22 15:25:00,
2013-06-22 11:31:00,83.8,64.3,30.25,West,270,0.0,0.7,52,0.00,,,0.00,pywws,2013-06-22 15:31:00,
2013-06-22 11:36:00,84.0,64.5,30.25,SE,135,0.0,0.7,52,0.00,,,0.00,pywws,2013-06-22 15:36:00,
2013-06-22 11:42:00,83.8,63.7,30.25,North,0,0.0,0.0,51,0.00,,,0.00,pywws,2013-06-22 15:42:00,
2013-06-22 11:48:00,84.4,64.2,30.24,East,90,0.0,0.0,51,0.00,,,0.00,pywws,2013-06-22 15:48:00,
2013-06-22 11:53:00,87.3,66.3,30.25,West,270,0.0,1.6,50,0.00,,,0.00,pywws,2013-06-22 15:53:00,
2013-06-22 11:59:00,84.2,61.8,30.24,West,270,0.0,0.0,47,0.00,,,0.00,pywws,2013-06-22 15:59:00,
2013-06-22 12:04:00,85.1,62.6,30.25,West,270,0.0,3.1,47,0.00,,,0.00,pywws,2013-06-22 16:04:00,
2013-06-22 12:10:00,83.1,61.4,30.24,South,180,0.0,0.0,48,0.00,,,0.00,pywws,2013-06-22 16:10:00,
2013-06-22 12:16:00,83.7,62.4,30.24,North,0,0.0,1.6,49,0.00,,,0.00,pywws,2013-06-22 16:16:00,
2013-06-22 12:21:00,82.9,60.6,30.24,South,180,0.7,4.5,47,0.00,,,0.00,pywws,2013-06-22 16:21:00,
2013-06-22 12:27:00,82.6,60.9,30.24,SE,135,0.0,0.7,48,0.00,,,0.00,pywws,2013-06-22 16:27:00,
2013-06-22 12:32:00,82.2,60.5,30.24,SE,135,0.0,3.1,48,0.00,,,0.00,pywws,2013-06-22 16:32:00,
2013-06-22 12:38:00,83.7,61.3,30.24,West,270,0.0,0.7,47,0.00,,,0.00,pywws,2013-06-22 16:38:00,
2013-06-22 12:44:00,84.0,61.6,30.24,North,0,0.0,0.7,47,0.00,,,0.00,pywws,2013-06-22 16:44:00,
2013-06-22 12:49:00,86.9,63.6,30.24,West,270,0.0,0.0,46,0.00,,,0.00,pywws,2013-06-22 16:49:00,
2013-06-22 12:55:00,84.0,61.0,30.24,SW,225,0.0,0.7,46,0.00,,,0.00,pywws,2013-06-22 16:55:00,
2013-06-22 13:00:00,84.2,60.5,30.24,North,0,0.0,0.0,45,0.00,,,0.00,pywws,2013-06-22 17:00:00,
2013-06-22 13:06:00,85.6,62.4,30.24,East,90,0.0,0.7,46,0.00,,,0.00,pywws,2013-06-22 17:06:00,
2013-06-22 13:12:00,85.5,62.3,30.24,West,270,0.0,0.0,46,0.00,,,0.00,pywws,2013-06-22 17:12:00,
2013-06-22 13:17:00,85.8,61.4,30.24,West,270,0.0,0.0,44,0.00,,,0.00,pywws,2013-06-22 17:17:00,
2013-06-22 13:23:00,86.0,62.2,30.23,North,0,0.0,0.0,45,0.00,,,0.00,pywws,2013-06-22 17:23:00,
2013-06-22 13:28:00,86.2,61.0,30.23,North,0,0.0,0.0,43,0.00,,,0.00,pywws,2013-06-22 17:28:00,
2013-06-22 13:34:00,87.1,63.8,30.22,East,90,0.0,0.0,46,0.00,,,0.00,pywws,2013-06-22 17:34:00,
2013-06-22 13:40:00,86.5,61.3,30.23,West,270,0.0,0.7,43,0.00,,,0.00,pywws,2013-06-22 17:40:00,
2013-06-22 13:45:00,85.1,60.7,30.22,SW,225,0.0,0.0,44,0.00,,,0.00,pywws,2013-06-22 17:45:00,
2013-06-22 13:51:00,85.8,60.7,30.22,West,270,0.0,0.0,43,0.00,,,0.00,pywws,2013-06-22 17:51:00,
2013-06-22 13:56:00,87.3,62.0,30.22,SW,225,0.0,0.0,43,0.00,,,0.00,pywws,2013-06-22 17:56:00,
2013-06-22 14:02:00,86.9,61.0,30.22,East,90,0.0,0.7,42,0.00,,,0.00,pywws,2013-06-22 18:02:00,
2013-06-22 14:08:00,86.9,60.3,30.22,NW,315,0.0,0.0,41,0.00,,,0.00,pywws,2013-06-22 18:08:00,
2013-06-22 14:13:00,87.1,61.8,30.22,West,270,2.2,6.0,43,0.00,,,0.00,pywws,2013-06-22 18:13:00,
2013-06-22 14:19:00,87.4,61.5,30.22,West,270,0.0,0.0,42,0.00,,,0.00,pywws,2013-06-22 18:19:00,
2013-06-22 14:24:00,89.2,61.0,30.21,West,270,0.0,1.6,39,0.00,,,0.00,pywws,2013-06-22 18:24:00,
2013-06-22 14:30:00,88.2,60.8,30.21,South,180,0.0,0.7,40,0.00,,,0.00,pywws,2013-06-22 18:30:00,
2013-06-22 14:36:00,88.5,60.4,30.21,North,0,0.0,0.0,39,0.00,,,0.00,pywws,2013-06-22 18:36:00,
2013-06-22 14:41:00,88.0,59.2,30.22,West,270,0.0,1.6,38,0.00,,,0.00,pywws,2013-06-22 18:41:00,
2013-06-22 14:47:00,88.9,62.1,30.21,West,270,0.0,0.0,41,0.00,,,0.00,pywws,2013-06-22 18:47:00,
2013-06-22 14:52:00,87.3,60.0,30.21,West,270,0.0,2.2,40,0.00,,,0.00,pywws,2013-06-22 18:52:00,
2013-06-22 14:58:00,86.5,61.3,30.21,West,270,0.0,0.0,43,0.00,,,0.00,pywws,2013-06-22 18:58:00,
2013-06-22 15:04:00,88.5,62.5,30.21,West,270,0.0,0.0,42,0.00,,,0.00,pywws,2013-06-22 19:04:00,
2013-06-22 15:09:00,87.3,62.0,30.21,SW,225,0.0,0.0,43,0.00,,,0.00,pywws,2013-06-22 19:09:00,
2013-06-22 15:15:00,88.0,62.0,30.20,SE,135,0.0,0.0,42,0.00,,,0.00,pywws,2013-06-22 19:15:00,
2013-06-22 15:20:00,89.4,63.3,30.19,East,90,0.0,0.0,42,0.00,,,0.00,pywws,2013-06-22 19:20:00,
2013-06-22 15:26:00,88.0,62.0,30.19,SW,225,0.0,0.0,42,0.00,,,0.00,pywws,2013-06-22 19:26:00,
2013-06-22 15:32:00,89.1,62.9,30.19,West,270,0.0,0.7,42,0.00,,,0.00,pywws,2013-06-22 19:32:00,
2013-06-22 15:37:00,88.0,62.0,30.19,West,270,0.0,0.0,42,0.00,,,0.00,pywws,2013-06-22 19:37:00,
2013-06-22 15:43:00,87.6,62.3,30.19,West,270,0.0,0.0,43,0.00,,,0.00,pywws,2013-06-22 19:43:00,
2013-06-22 15:48:00,88.5,63.1,30.18,West,270,0.0,0.0,43,0.00,,,0.00,pywws,2013-06-22 19:48:00,
2013-06-22 15:54:00,88.9,62.8,30.18,SE,135,0.0,0.0,42,0.00,,,0.00,pywws,2013-06-22 19:54:00,
2013-06-22 16:00:00,87.4,62.2,30.18,NE,45,0.0,0.7,43,0.00,,,0.00,pywws,2013-06-22 20:00:00,
2013-06-22 16:05:00,86.7,61.5,30.17,North,0,0.0,0.0,43,0.00,,,0.00,pywws,2013-06-22 20:05:00,
2013-06-22 16:11:00,83.8,60.2,30.17,East,90,0.0,0.0,45,0.00,,,0.00,pywws,2013-06-22 20:11:00,
2013-06-22 16:16:00,82.9,59.4,30.17,West,270,0.0,0.0,45,0.00,,,0.00,pywws,2013-06-22 20:16:00,
2013-06-22 16:22:00,86.5,62.6,30.17,North,0,0.0,0.0,45,0.00,,,0.00,pywws,2013-06-22 20:22:00,
2013-06-22 16:28:00,87.1,63.1,30.17,North,0,0.0,0.0,45,0.00,,,0.00,pywws,2013-06-22 20:28:00,
2013-06-22 16:33:00,87.6,62.3,30.17,South,180,0.0,0.0,43,0.00,,,0.00,pywws,2013-06-22 20:33:00,
2013-06-22 16:39:00,86.5,62.0,30.17,West,270,0.0,0.0,44,0.00,,,0.00,pywws,2013-06-22 20:39:00,
2013-06-22 16:44:00,86.2,61.7,30.17,West,270,0.0,0.7,44,0.00,,,0.00,pywws,2013-06-22 20:44:00,
2013-06-22 16:50:00,85.8,61.4,30.17,SW,225,0.0,0.0,44,0.00,,,0.00,pywws,2013-06-22 20:50:00,
2013-06-22 16:56:00,85.6,61.2,30.16,East,90,0.0,0.0,44,0.00,,,0.00,pywws,2013-06-22 20:56:00,
2013-06-22 17:01:00,84.4,60.1,30.16,West,270,0.0,0.0,44,0.00,,,0.00,pywws,2013-06-22 21:01:00,
2013-06-22 17:07:00,84.9,61.2,30.16,NE,45,0.0,0.0,45,0.00,,,0.00,pywws,2013-06-22 21:07:00,
2013-06-22 17:12:00,83.5,60.5,30.16,West,270,0.0,0.0,46,0.00,,,0.00,pywws,2013-06-22 21:12:00,
2013-06-22 17:18:00,83.5,61.1,30.16,SE,135,0.0,0.0,47,0.00,,,0.00,pywws,2013-06-22 21:18:00,
2013-06-22 17:24:00,82.6,60.3,30.16,South,180,0.0,0.0,47,0.00,,,0.00,pywws,2013-06-22 21:24:00,
2013-06-22 17:29:00,82.0,60.4,30.16,South,180,0.0,0.0,48,0.00,,,0.00,pywws,2013-06-22 21:29:00,
2013-06-22 17:35:00,81.9,60.2,30.16,West,270,0.0,0.0,48,0.00,,,0.00,pywws,2013-06-22 21:35:00,
2013-06-22 17:40:00,81.1,59.6,30.16,West,270,0.0,0.0,48,0.00,,,0.00,pywws,2013-06-22 21:40:00,
2013-06-22 17:46:00,80.4,60.1,30.16,West,270,0.0,0.0,50,0.00,,,0.00,pywws,2013-06-22 21:46:00,
2013-06-22 17:52:00,80.6,60.8,30.16,West,270,0.0,0.0,51,0.00,,,0.00,pywws,2013-06-22 21:52:00,
2013-06-22 17:58:00,80.6,60.8,30.16,West,270,0.0,0.0,51,0.00,,,0.00,pywws,2013-06-22 21:58:00,
2013-06-22 18:04:00,80.1,61.4,30.16,SE,135,0.0,0.0,53,0.00,,,0.00,pywws,2013-06-22 22:04:00,
2013-06-22 18:09:00,79.3,61.7,30.16,West,270,0.0,0.0,55,0.00,,,0.00,pywws,2013-06-22 22:09:00,
2013-06-22 18:15:00,79.3,61.2,30.16,West,270,0.0,0.0,54,0.00,,,0.00,pywws,2013-06-22 22:15:00,
2013-06-22 18:20:00,79.2,61.6,30.16,West,270,0.0,0.7,55,0.00,,,0.00,pywws,2013-06-22 22:20:00,
2013-06-22 18:26:00,78.4,61.4,30.16,NE,45,0.0,0.0,56,0.00,,,0.00,pywws,2013-06-22 22:26:00,
2013-06-22 18:32:00,78.4,60.9,30.16,North,0,0.0,0.0,55,0.00,,,0.00,pywws,2013-06-22 22:32:00,
2013-06-22 18:37:00,77.9,60.9,30.16,West,270,0.0,0.0,56,0.00,,,0.00,pywws,2013-06-22 22:37:00,
2013-06-22 18:43:00,77.5,61.1,30.16,SW,225,0.0,0.0,57,0.00,,,0.00,pywws,2013-06-22 22:43:00,
2013-06-22 18:48:00,77.4,61.4,30.16,SE,135,0.0,0.0,58,0.00,,,0.00,pywws,2013-06-22 22:48:00,
2013-06-22 18:54:00,77.0,61.1,30.16,South,180,0.0,0.0,58,0.00,,,0.00,pywws,2013-06-22 22:54:00,
2013-06-22 19:00:00,76.6,62.2,30.16,West,270,0.0,0.0,61,0.00,,,0.00,pywws,2013-06-22 23:00:00,
2013-06-22 19:05:00,76.3,62.3,30.16,West,270,0.0,0.0,62,0.00,,,0.00,pywws,2013-06-22 23:05:00,
2013-06-22 19:11:00,75.9,61.9,30.16,South,180,0.0,0.0,62,0.00,,,0.00,pywws,2013-06-22 23:11:00,
2013-06-22 19:16:00,75.6,62.5,30.16,West,270,0.0,0.0,64,0.00,,,0.00,pywws,2013-06-22 23:16:00,
2013-06-22 19:22:00,75.0,62.9,30.16,South,180,0.0,0.0,66,0.00,,,0.00,pywws,2013-06-22 23:22:00,
2013-06-22 19:28:00,74.7,63.0,30.16,North,0,0.0,0.0,67,0.00,,,0.00,pywws,2013-06-22 23:28:00,
2013-06-22 19:34:00,74.3,62.6,30.16,West,270,0.0,0.0,67,0.00,,,0.00,pywws,2013-06-22 23:34:00,
2013-06-22 19:40:00,73.9,62.7,30.16,West,270,0.0,0.0,68,0.00,,,0.00,pywws,2013-06-22 23:40:00,
2013-06-22 19:45:00,73.8,62.5,30.17,West,270,0.0,0.0,68,0.00,,,0.00,pywws,2013-06-22 23:45:00,
2013-06-22 19:51:00,73.4,62.6,30.16,West,270,0.0,0.0,69,0.00,,,0.00,pywws,2013-06-22 23:51:00,
2013-06-22 19:57:00,73.0,62.3,30.17,North,0,0.0,0.0,69,0.00,,,0.00,pywws,2013-06-22 23:57:00,
2013-06-22 20:03:00,72.7,62.3,30.16,South,180,0.0,0.0,70,0.00,,,0.00,pywws,2013-06-23 00:03:00,
2013-06-22 20:08:00,72.3,62.4,30.16,West,270,0.0,0.0,71,0.00,,,0.00,pywws,2013-06-23 00:08:00,
2013-06-22 20:15:00,72.1,61.8,30.16,North,0,0.0,0.0,70,0.00,,,0.00,pywws,2013-06-23 00:15:00,
2013-06-22 20:20:00,71.6,61.7,30.16,West,270,0.0,0.0,71,0.00,,,0.00,pywws,2013-06-23 00:20:00,
2013-06-22 20:26:00,71.2,61.7,30.16,South,180,0.0,0.0,72,0.00,,,0.00,pywws,2013-06-23 00:26:00,
2013-06-22 20:32:00,71.1,62.0,30.17,West,270,0.0,0.0,73,0.00,,,0.00,pywws,2013-06-23 00:32:00,
2013-06-22 20:39:00,70.7,61.6,30.17,West,270,0.0,0.0,73,0.00,,,0.00,pywws,2013-06-23 00:39:00,
2013-06-22 20:45:00,70.5,61.4,30.18,West,270,0.0,0.0,73,0.00,,,0.00,pywws,2013-06-23 00:45:00,
2013-06-22 20:52:00,70.0,60.9,30.18,West,270,0.0,0.0,73,0.00,,,0.00,pywws,2013-06-23 00:52:00,
2013-06-22 20:57:00,70.0,60.9,30.18,West,270,0.0,0.0,73,0.00,,,0.00,pywws,2013-06-23 00:57:00,
2013-06-22 21:03:00,69.6,61.0,30.18,North,0,0.0,0.0,74,0.00,,,0.00,pywws,2013-06-23 01:03:00,
2013-06-22 21:08:00,69.8,60.7,30.19,West,270,0.0,0.0,73,0.00,,,0.00,pywws,2013-06-23 01:08:00,
2013-06-22 21:14:00,69.3,60.6,30.19,North,0,0.0,0.0,74,0.00,,,0.00,pywws,2013-06-23 01:14:00,
2013-06-22 21:20:00,69.4,60.8,30.19,West,270,0.0,0.0,74,0.00,,,0.00,pywws,2013-06-23 01:20:00,
2013-06-22 21:25:00,69.1,60.1,30.19,West,270,0.0,0.0,73,0.00,,,0.00,pywws,2013-06-23 01:25:00,
2013-06-22 21:31:00,69.1,60.1,30.19,South,180,0.0,0.0,73,0.00,,,0.00,pywws,2013-06-23 01:31:00,
2013-06-22 21:36:00,68.9,59.9,30.20,West,270,0.0,0.0,73,0.00,,,0.00,pywws,2013-06-23 01:36:00,
2013-06-22 21:42:00,68.5,59.5,30.20,West,270,0.0,0.0,73,0.00,,,0.00,pywws,2013-06-23 01:42:00,
2013-06-22 21:48:00,68.4,59.0,30.20,West,270,0.0,0.0,72,0.00,,,0.00,pywws,2013-06-23 01:48:00,
2013-06-22 21:54:00,68.4,59.0,30.19,West,270,0.0,0.0,72,0.00,,,0.00,pywws,2013-06-23 01:54:00,
2013-06-22 22:00:00,68.7,59.3,30.20,West,270,0.0,0.0,72,0.00,,,0.00,pywws,2013-06-23 02:00:00,
2013-06-22 22:06:00,68.4,58.6,30.19,West,270,0.0,0.7,71,0.00,,,0.00,pywws,2013-06-23 02:06:00,
2013-06-22 22:13:00,68.4,58.6,30.20,West,270,0.0,0.0,71,0.00,,,0.00,pywws,2013-06-23 02:13:00,
2013-06-22 22:19:00,68.2,58.8,30.20,West,270,0.0,0.0,72,0.00,,,0.00,pywws,2013-06-23 02:19:00,
2013-06-22 22:25:00,68.4,59.0,30.20,West,270,0.0,0.0,72,0.00,,,0.00,pywws,2013-06-23 02:25:00,
2013-06-22 22:31:00,68.2,58.8,30.20,West,270,0.0,0.0,72,0.00,,,0.00,pywws,2013-06-23 02:31:00,
2013-06-22 22:36:00,68.0,59.0,30.20,West,270,0.0,0.0,73,0.00,,,0.00,pywws,2013-06-23 02:36:00,
2013-06-22 22:42:00,67.8,59.2,30.20,West,270,0.0,0.0,74,0.00,,,0.00,pywws,2013-06-23 02:42:00,
2013-06-22 22:48:00,67.5,58.9,30.20,West,270,0.0,0.0,74,0.00,,,0.00,pywws,2013-06-23 02:48:00,
2013-06-22 22:55:00,67.3,59.1,30.20,West,270,0.0,0.0,75,0.00,,,0.00,pywws,2013-06-23 02:55:00,
2013-06-22 23:00:00,67.3,59.1,30.20,West,270,0.0,0.0,75,0.00,,,0.00,pywws,2013-06-23 03:00:00,
2013-06-22 23:06:00,67.1,58.9,30.20,West,270,0.0,0.0,75,0.00,,,0.00,pywws,2013-06-23 03:06:00,
2013-06-22 23:12:00,66.9,58.7,30.20,West,270,0.0,0.0,75,0.00,,,0.00,pywws,2013-06-23 03:12:00,
2013-06-22 23:17:00,66.9,59.1,30.21,West,270,0.0,0.0,76,0.00,,,0.00,pywws,2013-06-23 03:17:00,
2013-06-22 23:24:00,66.9,58.7,30.20,West,270,0.0,0.0,75,0.00,,,0.00,pywws,2013-06-23 03:24:00,
2013-06-22 23:30:00,67.3,58.7,30.20,West,270,0.0,0.0,74,0.00,,,0.00,pywws,2013-06-23 03:30:00,
2013-06-22 23:37:00,67.3,58.7,30.21,West,270,0.0,0.0,74,0.00,,,0.00,pywws,2013-06-23 03:37:00,
2013-06-22 23:43:00,67.1,58.5,30.20,East,90,0.0,0.0,74,0.00,,,0.00,pywws,2013-06-23 03:43:00,
2013-06-22 23:49:00,66.9,58.4,30.21,West,270,0.0,0.0,74,0.00,,,0.00,pywws,2013-06-23 03:49:00,
2013-06-22 23:55:00,66.7,58.6,30.21,West,270,0.0,0.0,75,0.00,,,0.00,pywws,2013-06-23 03:55:00,